STARLINK-1069 (44955 NORAD) Tracking and Keplerian Element Data

This shows tracking and keplerian element data for the satellite.

Feedback or suggestion? Click here.




ElementValue
Catalog44955
NameSTARLINK-1069
Epoch Orbit176
Epoch Day193.91667824
Epoch Year2020
RAAN224.7162
Inclination52.9992
Eccentricity9.67E-05
Argument of Perigee110.0135
Mean Anonmoly253.4325
Mean Motion15.05556325
Decay Rate0.00065624
L11 44955U 20001AT 20193.91667824 .00065624 00000-0 44842-2 0 9995
L22 44955 52.9992 224.7162 0000967 110.0135 253.4325 15.05556325 1767

Live tracking and technical data element details for STARLINK-1069 (NORAD 44955). STARLINK-1069 can be tracked NOW for your location showing map with azimuth and elevation plus other details from your city location.

Track the satellite on the map from your city or location and see movement details for azimuth, elevation, latitude, longitude, range, height, and movement on the map or in text.







IsCatalogInMostPopularTable: catalog: 44955, numindb: 41
Update: records affected: 1



GetName: 44955 STARLINK-1069

Hit Count: updated at: Mon, 13 Jul 2020 03:51:00 GMT